| time (UTC) | temp C | wind direction | speed KPH | gust KPH | rain 1hr cm | rain 24hr cm | rain mn cm | humidity % | barometer mb |
| 20260906221220 | 26 | 141 | 6.4 | 19.3 | 0.00 | 0.00 | 0.00 | 13 | 1038.2 |
| 20260906220503 | 26 | 277 | 6.4 | 14.5 | 0.00 | 0.00 | 0.00 | 13 | 1038.4 |
| 20260906220221 | 26 | 270 | 4.8 | 14.5 | 0.00 | 0.00 | 0.00 | 14 | 1038.4 |
| 20260906215503 | 26 | 135 | 6.4 | 14.5 | 0.00 | 0.00 | 0.00 | 14 | 1038.6 |
| 20260906215003 | 26 | 143 | 6.4 | 16.1 | 0.00 | 0.00 | 0.00 | 13 | 1038.7 |
| 20260906214503 | 26 | 210 | 6.4 | 16.1 | 0.00 | 0.00 | 0.00 | 14 | 1038.9 |
| 20260906214003 | 26 | 199 | 8.0 | 35.4 | 0.00 | 0.00 | 0.00 | 13 | 1038.9 |
| 20260906213503 | 25 | 217 | 9.7 | 35.4 | 0.00 | 0.00 | 0.00 | 13 | 1038.9 |
| 20260906213003 | 25 | 241 | 8.0 | 14.5 | 0.00 | 0.00 | 0.00 | 11 | 1038.9 |
| 20260906212504 | 25 | 240 | 8.0 | 19.3 | 0.00 | 0.00 | 0.00 | 14 | 1039.0 |
| 20260906212003 | 26 | 261 | 8.0 | 19.3 | 0.00 | 0.00 | 0.00 | 14 | 1039.1 |
| 20260906211503 | 26 | 253 | 6.4 | 16.1 | 0.00 | 0.00 | 0.00 | 14 | 1039.1 |
| 20260906211003 | 26 | 241 | 6.4 | 14.5 | 0.00 | 0.00 | 0.00 | 13 | 1039.3 |
| 20260906210503 | 26 | 255 | 4.8 | 12.9 | 0.00 | 0.00 | 0.00 | 14 | 1039.3 |
| 20260906210004 | 26 | 228 | 6.4 | 12.9 | 0.00 | 0.00 | 0.00 | 12 | 1039.4 |
| 20260906205503 | 25 | 227 | 6.4 | 14.5 | 0.00 | 0.00 | 0.00 | 12 | 1039.5 |
| 20260906205003 | 25 | 217 | 6.4 | 16.1 | 0.00 | 0.00 | 0.00 | 14 | 1039.5 |
| 20260906204720 | 26 | 164 | 8.0 | 19.3 | 0.00 | 0.00 | 0.00 | 14 | 1039.5 |
| 20260906204003 | 26 | 145 | 9.7 | 25.7 | 0.00 | 0.00 | 0.00 | 14 | 1039.6 |
| 20260906203503 | 25 | 166 | 8.0 | 25.7 | 0.00 | 0.00 | 0.00 | 16 | 1039.7 |
| 20260906203003 | 25 | 180 | 8.0 | 17.7 | 0.00 | 0.00 | 0.00 | 16 | 1039.7 |
| 20260906202503 | 25 | 183 | 8.0 | 19.3 | 0.00 | 0.00 | 0.00 | 20 | 1039.8 |
| 20260906202003 | 25 | 178 | 6.4 | 19.3 | 0.00 | 0.00 | 0.00 | 20 | 1039.8 |
| 20260906201503 | 25 | 227 | 6.4 | 17.7 | 0.00 | 0.00 | 0.00 | 22 | 1039.9 |
| 20260906201003 | 25 | 169 | 6.4 | 20.9 | 0.00 | 0.00 | 0.00 | 21 | 1039.8 |
| 20260906200503 | 25 | 154 | 6.4 | 20.9 | 0.00 | 0.00 | 0.00 | 23 | 1039.8 |
| 20260906200003 | 24 | 249 | 8.0 | 24.1 | 0.00 | 0.00 | 0.00 | 24 | 1039.9 |
| 20260906195503 | 25 | 259 | 8.0 | 24.1 | 0.00 | 0.00 | 0.00 | 23 | 1039.8 |
| 20260906195003 | 25 | 258 | 6.4 | 16.1 | 0.00 | 0.00 | 0.00 | 22 | 1039.9 |
| 20260906194503 | 25 | 261 | 4.8 | 14.5 | 0.00 | 0.00 | 0.00 | 22 | 1039.9 |
| 20260906194003 | 25 | 275 | 6.4 | 17.7 | 0.00 | 0.00 | 0.00 | 23 | 1039.9 |
| 20260906193503 | 25 | 281 | 6.4 | 17.7 | 0.00 | 0.00 | 0.00 | 22 | 1040.0 |
| 20260906193003 | 25 | 280 | 4.8 | 16.1 | 0.00 | 0.00 | 0.00 | 22 | 1039.9 |
| 20260906192503 | 24 | 300 | 4.8 | 16.1 | 0.00 | 0.00 | 0.00 | 22 | 1040.1 |
| 20260906192003 | 24 | 280 | 4.8 | 12.9 | 0.00 | 0.00 | 0.00 | 22 | 1040.1 |
| 20260906191503 | 24 | 282 | 6.4 | 17.7 | 0.00 | 0.00 | 0.00 | 22 | 1040.2 |
| 20260906191003 | 24 | 291 | 6.4 | 17.7 | 0.00 | 0.00 | 0.00 | 21 | 1040.2 |
| 20260906190504 | 24 | 120 | 6.4 | 12.9 | 0.00 | 0.00 | 0.00 | 23 | 1040.3 |
| 20260906190003 | 24 | 102 | 4.8 | 16.1 | 0.00 | 0.00 | 0.00 | 22 | 1040.3 |
| 20260906185503 | 24 | 121 | 4.8 | 16.1 | 0.00 | 0.00 | 0.00 | 22 | 1040.4 |
| 20260906185003 | 24 | 149 | 4.8 | 16.1 | 0.00 | 0.00 | 0.00 | 22 | 1040.5 |
| 20260906184503 | 23 | 175 | 4.8 | 16.1 | 0.00 | 0.00 | 0.00 | 23 | 1040.6 |
| 20260906184003 | 23 | 273 | 6.4 | 14.5 | 0.00 | 0.00 | 0.00 | 23 | 1040.6 |
| 20260906183503 | 23 | 273 | 8.0 | 17.7 | 0.00 | 0.00 | 0.00 | 24 | 1040.7 |
| 20260906183003 | 23 | 273 | 4.8 | 17.7 | 0.00 | 0.00 | 0.00 | 23 | 1040.7 |
| 20260906182503 | 23 | 307 | 4.8 | 14.5 | 0.00 | 0.00 | 0.00 | 26 | 1040.8 |
| 20260906182003 | 22 | 283 | 6.4 | 14.5 | 0.00 | 0.00 | 0.00 | 26 | 1040.9 |
| 20260906181503 | 23 | 270 | 4.8 | 14.5 | 0.00 | 0.00 | 0.00 | 25 | 1041.0 |
| 20260906181003 | 23 | 338 | 3.2 | 8.0 | 0.00 | 0.00 | 0.00 | 26 | 1041.1 |
| 20260906180503 | 22 | 308 | 3.2 | 14.5 | 0.00 | 0.00 | 0.00 | 26 | 1041.1 |
| 20260906180004 | 22 | 190 | 4.8 | 14.5 | 0.00 | 0.00 | 0.00 | 27 | 1041.3 |
| 20260906175504 | 22 | 138 | 6.4 | 14.5 | 0.00 | 0.00 | 0.00 | 27 | 1041.4 |
| 20260906175219 | 22 | 124 | 6.4 | 16.1 | 0.00 | 0.00 | 0.00 | 26 | 1041.5 |
| 20260906174503 | 22 | 181 | 4.8 | 16.1 | 0.00 | 0.00 | 0.00 | 26 | 1041.5 |
| 20260906174003 | 22 | 169 | 4.8 | 19.3 | 0.00 | 0.00 | 0.00 | 29 | 1041.5 |
| 20260906173503 | 22 | 206 | 3.2 | 19.3 | 0.00 | 0.00 | 0.00 | 31 | 1041.4 |
| 20260906173003 | 21 | 260 | 4.8 | 14.5 | 0.00 | 0.00 | 0.00 | 30 | 1041.7 |
| 20260906172503 | 22 | 223 | 6.4 | 17.7 | 0.00 | 0.00 | 0.00 | 30 | 1041.8 |
| 20260906172217 | 22 | 202 | 6.4 | 17.7 | 0.00 | 0.00 | 0.00 | 30 | 1041.8 |
| 20260906171503 | 22 | 156 | 4.8 | 14.5 | 0.00 | 0.00 | 0.00 | 32 | 1041.9 |
| 20260906171003 | 21 | 210 | 4.8 | 14.5 | 0.00 | 0.00 | 0.00 | 33 | 1042.0 |
| 20260906170503 | 21 | 258 | 4.8 | 16.1 | 0.00 | 0.00 | 0.00 | 32 | 1042.1 |
| 20260906170003 | 21 | 252 | 4.8 | 16.1 | 0.00 | 0.00 | 0.00 | 33 | 1042.1 |
| 20260906165503 | 21 | 268 | 4.8 | 14.5 | 0.00 | 0.00 | 0.00 | 34 | 1042.1 |
| 20260906165220 | 20 | 274 | 6.4 | 11.3 | 0.00 | 0.00 | 0.00 | 35 | 1042.1 |
| 20260906164503 | 20 | 267 | 6.4 | 12.9 | 0.00 | 0.00 | 0.00 | 35 | 1042.1 |
| 20260906164003 | 20 | 284 | 6.4 | 12.9 | 0.00 | 0.00 | 0.00 | 36 | 1042.0 |
| 20260906163718 | 20 | 287 | 6.4 | 12.9 | 0.00 | 0.00 | 0.00 | 36 | 1042.0 |
| 20260906163003 | 20 | 285 | 6.4 | 12.9 | 0.00 | 0.00 | 0.00 | 36 | 1042.0 |
| 20260906162503 | 20 | 252 | 4.8 | 12.9 | 0.00 | 0.00 | 0.00 | 37 | 1042.1 |
| 20260906162003 | 20 | 237 | 4.8 | 16.1 | 0.00 | 0.00 | 0.00 | 37 | 1042.0 |
| 20260906161721 | 20 | 251 | 6.4 | 16.1 | 0.00 | 0.00 | 0.00 | 38 | 1042.0 |
| 20260906161218 | 20 | 275 | 6.4 | 14.5 | 0.00 | 0.00 | 0.00 | 39 | 1041.9 |
| 20260906160503 | 20 | 289 | 6.4 | 14.5 | 0.00 | 0.00 | 0.00 | 38 | 1041.9 |
| 20260906160003 | 20 | 274 | 6.4 | 14.5 | 0.00 | 0.00 | 0.00 | 39 | 1041.9 |
| 20260906155503 | 20 | 262 | 4.8 | 11.3 | 0.00 | 0.00 | 0.00 | 39 | 1041.9 |
| 20260906155220 | 19 | 268 | 6.4 | 12.9 | 0.00 | 0.00 | 0.00 | 40 | 1041.9 |
| 20260906154503 | 19 | 300 | 8.0 | 17.7 | 0.00 | 0.00 | 0.00 | 40 | 1041.9 |
| 20260906154003 | 19 | 307 | 6.4 | 17.7 | 0.00 | 0.00 | 0.00 | 39 | 1041.8 |
| 20260906153503 | 18 | 299 | 4.8 | 14.5 | 0.00 | 0.00 | 0.00 | 41 | 1041.8 |
| 20260906153003 | 18 | 304 | 4.8 | 14.5 | 0.00 | 0.00 | 0.00 | 41 | 1041.8 |
| 20260906152503 | 18 | 308 | 6.4 | 16.1 | 0.00 | 0.00 | 0.00 | 41 | 1041.8 |
| 20260906152003 | 18 | 303 | 6.4 | 16.1 | 0.00 | 0.00 | 0.00 | 41 | 1041.8 |
| 20260906151504 | 18 | 297 | 8.0 | 17.7 | 0.00 | 0.00 | 0.00 | 41 | 1041.6 |
| 20260906151003 | 18 | 292 | 8.0 | 19.3 | 0.00 | 0.00 | 0.00 | 41 | 1041.6 |
| 20260906150717 | 18 | 279 | 6.4 | 19.3 | 0.00 | 0.00 | 0.00 | 42 | 1041.7 |
| 20260906150004 | 18 | 271 | 6.4 | 17.7 | 0.00 | 0.00 | 0.00 | 43 | 1041.5 |
| 20260906145503 | 18 | 270 | 6.4 | 22.5 | 0.00 | 0.00 | 0.00 | 42 | 1041.5 |
| 20260906145003 | 17 | 286 | 8.0 | 22.5 | 0.00 | 0.00 | 0.00 | 42 | 1041.4 |
| 20260906144503 | 17 | 293 | 8.0 | 17.7 | 0.00 | 0.00 | 0.00 | 42 | 1041.5 |
| 20260906144003 | 17 | 284 | 8.0 | 17.7 | 0.00 | 0.00 | 0.00 | 42 | 1041.4 |
| 20260906143720 | 17 | 281 | 8.0 | 17.7 | 0.00 | 0.00 | 0.00 | 42 | 1041.4 |
| 20260906143003 | 17 | 269 | 8.0 | 22.5 | 0.00 | 0.00 | 0.00 | 42 | 1041.4 |
| 20260906142503 | 17 | 256 | 6.4 | 22.5 | 0.00 | 0.00 | 0.00 | 42 | 1041.4 |
| 20260906142003 | 17 | 265 | 8.0 | 17.7 | 0.00 | 0.00 | 0.00 | 42 | 1041.4 |
| 20260906141503 | 17 | 292 | 8.0 | 19.3 | 0.00 | 0.00 | 0.00 | 43 | 1041.3 |
| 20260906141003 | 17 | 298 | 8.0 | 19.3 | 0.00 | 0.00 | 0.00 | 44 | 1041.3 |
| 20260906140503 | 17 | 264 | 6.4 | 14.5 | 0.00 | 0.00 | 0.00 | 44 | 1041.3 |
| 20260906140003 | 17 | 265 | 8.0 | 22.5 | 0.00 | 0.00 | 0.00 | 44 | 1041.2 |
| 20260906135503 | 17 | 277 | 9.7 | 22.5 | 0.00 | 0.00 | 0.00 | 43 | 1041.2 |
| 20260906135003 | 17 | 275 | 8.0 | 20.9 | 0.00 | 0.00 | 0.00 | 42 | 1041.2 |
| 20260906134503 | 17 | 283 | 8.0 | 17.7 | 0.00 | 0.00 | 0.00 | 43 | 1041.2 |
| 20260906134003 | 17 | 280 | 8.0 | 17.7 | 0.00 | 0.00 | 0.00 | 43 | 1041.1 |
| 20260906133503 | 17 | 285 | 8.0 | 17.7 | 0.00 | 0.00 | 0.00 | 44 | 1041.0 |
| 20260906133003 | 16 | 286 | 8.0 | 17.7 | 0.00 | 0.00 | 0.00 | 45 | 1041.0 |
| 20260906132504 | 16 | 291 | 8.0 | 16.1 | 0.00 | 0.00 | 0.00 | 45 | 1041.0 |
| 20260906132219 | 16 | 293 | 6.4 | 16.1 | 0.00 | 0.00 | 0.00 | 46 | 1041.0 |
| 20260906131503 | 16 | 283 | 8.0 | 17.7 | 0.00 | 0.00 | 0.00 | 45 | 1040.9 |
| 20260906131003 | 16 | 289 | 8.0 | 17.7 | 0.00 | 0.00 | 0.00 | 47 | 1040.8 |
| 20260906130718 | 15 | 284 | 8.0 | 16.1 | 0.00 | 0.00 | 0.00 | 47 | 1040.7 |
| 20260906130221 | 15 | 277 | 6.4 | 14.5 | 0.00 | 0.00 | 0.00 | 48 | 1040.7 |
| 20260906125503 | 15 | 299 | 6.4 | 16.1 | 0.00 | 0.00 | 0.00 | 49 | 1040.8 |
| 20260906125003 | 15 | 309 | 8.0 | 16.1 | 0.00 | 0.00 | 0.00 | 50 | 1040.8 |
| 20260906124720 | 14 | 305 | 6.4 | 16.1 | 0.00 | 0.00 | 0.00 | 50 | 1040.8 |
| 20260906124003 | 13 | 253 | 3.2 | 6.4 | 0.00 | 0.00 | 0.00 | 52 | 1040.8 |
| 20260906123503 | 14 | 232 | 3.2 | 8.0 | 0.00 | 0.00 | 0.00 | 53 | 1040.9 |
| 20260906123003 | 14 | 185 | 1.6 | 8.0 | 0.00 | 0.00 | 0.00 | 54 | 1040.9 |
| 20260906122504 | 14 | 141 | 1.6 | 6.4 | 0.00 | 0.00 | 0.00 | 51 | 1040.8 |
| 20260906122003 | 14 | 163 | 1.6 | 6.4 | 0.00 | 0.00 | 0.00 | 51 | 1040.8 |
| 20260906121503 | 15 | 295 | 1.6 | 6.4 | 0.00 | 0.00 | 0.00 | 50 | 1040.8 |
| 20260906121003 | 15 | 293 | 3.2 | 6.4 | 0.00 | 0.00 | 0.00 | 49 | 1040.8 |
| 20260906120503 | 15 | 284 | 3.2 | 6.4 | 0.00 | 0.00 | 0.00 | 48 | 1040.8 |
| 20260906120004 | 15 | 299 | 3.2 | 8.0 | 0.00 | 0.00 | 0.00 | 48 | 1040.8 |
| 20260906115503 | 15 | 318 | 1.6 | 8.0 | 0.00 | 0.00 | 0.00 | 49 | 1040.8 |
| 20260906115003 | 15 | 315 | 4.8 | 14.5 | 0.00 | 0.00 | 0.00 | 49 | 1040.7 |
| 20260906114503 | 16 | 315 | 8.0 | 16.1 | 0.00 | 0.00 | 0.00 | 48 | 1040.7 |
| 20260906114003 | 16 | 316 | 8.0 | 17.7 | 0.00 | 0.00 | 0.00 | 48 | 1040.7 |
| 20260906113503 | 16 | 315 | 8.0 | 17.7 | 0.00 | 0.00 | 0.00 | 47 | 1040.7 |
| 20260906113220 | 16 | 313 | 8.0 | 16.1 | 0.00 | 0.00 | 0.00 | 47 | 1040.7 |
| 20260906112503 | 16 | 309 | 6.4 | 20.9 | 0.00 | 0.00 | 0.00 | 47 | 1040.7 |
| 20260906112003 | 16 | 308 | 9.7 | 20.9 | 0.00 | 0.00 | 0.00 | 48 | 1040.8 |
| 20260906111718 | 16 | 308 | 9.7 | 20.9 | 0.00 | 0.00 | 0.00 | 48 | 1040.7 |
| 20260906111003 | 16 | 308 | 9.7 | 17.7 | 0.00 | 0.00 | 0.00 | 49 | 1040.7 |
| 20260906110503 | 16 | 314 | 11.3 | 19.3 | 0.00 | 0.00 | 0.00 | 49 | 1040.7 |
| 20260906110003 | 16 | 313 | 9.7 | 19.3 | 0.00 | 0.00 | 0.00 | 49 | 1040.7 |
| 20260906105503 | 16 | 309 | 9.7 | 19.3 | 0.00 | 0.00 | 0.00 | 49 | 1040.7 |
| 20260906105003 | 16 | 310 | 9.7 | 22.5 | 0.00 | 0.00 | 0.00 | 49 | 1040.6 |
| 20260906104503 | 16 | 309 | 8.0 | 22.5 | 0.00 | 0.00 | 0.00 | 49 | 1040.6 |
| 20260906104003 | 16 | 309 | 8.0 | 19.3 | 0.00 | 0.00 | 0.00 | 49 | 1040.6 |
| 20260906103503 | 16 | 309 | 8.0 | 19.3 | 0.00 | 0.00 | 0.00 | 49 | 1040.6 |
| 20260906103003 | 16 | 310 | 9.7 | 17.7 | 0.00 | 0.00 | 0.00 | 48 | 1040.5 |
| 20260906102503 | 16 | 312 | 11.3 | 19.3 | 0.00 | 0.00 | 0.00 | 48 | 1040.5 |
| 20260906102003 | 16 | 312 | 9.7 | 19.3 | 0.00 | 0.00 | 0.00 | 48 | 1040.5 |
| 20260906101503 | 16 | 312 | 8.0 | 16.1 | 0.00 | 0.00 | 0.00 | 48 | 1040.5 |
| 20260906101003 | 16 | 306 | 6.4 | 16.1 | 0.00 | 0.00 | 0.00 | 48 | 1040.6 |
| 20260906100720 | 16 | 304 | 6.4 | 16.1 | 0.00 | 0.00 | 0.00 | 48 | 1040.6 |
| 20260906100003 | 17 | 308 | 8.0 | 17.7 | 0.00 | 0.00 | 0.00 | 47 | 1040.5 |
| 20260906095503 | 16 | 309 | 8.0 | 17.7 | 0.00 | 0.00 | 0.00 | 47 | 1040.7 |
| 20260906095003 | 16 | 312 | 9.7 | 20.9 | 0.00 | 0.00 | 0.00 | 47 | 1040.6 |
| 20260906094717 | 16 | 313 | 9.7 | 20.9 | 0.00 | 0.00 | 0.00 | 48 | 1040.7 |
| 20260906094003 | 16 | 312 | 8.0 | 20.9 | 0.00 | 0.00 | 0.00 | 50 | 1040.7 |
| 20260906093503 | 15 | 313 | 6.4 | 16.1 | 0.00 | 0.00 | 0.00 | 51 | 1040.7 |
| 20260906093221 | 15 | 312 | 4.8 | 16.1 | 0.00 | 0.00 | 0.00 | 52 | 1040.7 |
| 20260906092503 | 15 | 302 | 1.6 | 4.8 | 0.00 | 0.00 | 0.00 | 52 | 1040.7 |
| 20260906092003 | 15 | 299 | 0.0 | 3.2 | 0.00 | 0.00 | 0.00 | 53 | 1040.7 |
| 20260906091503 | 15 | 298 | 1.6 | 4.8 | 0.00 | 0.00 | 0.00 | 54 | 1040.7 |
| 20260906091218 | 15 | 307 | 1.6 | 4.8 | 0.00 | 0.00 | 0.00 | 53 | 1040.7 |
| 20260906090503 | 15 | 323 | 1.6 | 4.8 | 0.00 | 0.00 | 0.00 | 53 | 1040.7 |
| 20260906090003 | 15 | 319 | 1.6 | 4.8 | 0.00 | 0.00 | 0.00 | 52 | 1040.7 |
| 20260906085503 | 15 | 318 | 3.2 | 8.0 | 0.00 | 0.00 | 0.00 | 51 | 1040.6 |
| 20260906085003 | 15 | 316 | 4.8 | 8.0 | 0.00 | 0.00 | 0.00 | 52 | 1040.6 |
| 20260906084503 | 15 | 320 | 4.8 | 8.0 | 0.00 | 0.00 | 0.00 | 53 | 1040.6 |
| 20260906084003 | 15 | 328 | 3.2 | 8.0 | 0.00 | 0.00 | 0.00 | 53 | 1040.5 |
| 20260906083503 | 15 | 331 | 1.6 | 4.8 | 0.00 | 0.00 | 0.00 | 54 | 1040.6 |
| 20260906083216 | 15 | 331 | 1.6 | 4.8 | 0.00 | 0.00 | 0.00 | 53 | 1040.7 |
| 20260906082719 | 15 | 330 | 1.6 | 4.8 | 0.00 | 0.00 | 0.00 | 53 | 1040.7 |
| 20260906082003 | 15 | 336 | 1.6 | 4.8 | 0.00 | 0.00 | 0.00 | 54 | 1040.7 |
| 20260906081503 | 15 | 337 | 3.2 | 6.4 | 0.00 | 0.00 | 0.00 | 55 | 1040.7 |
| 20260906081003 | 15 | 336 | 1.6 | 6.4 | 0.00 | 0.00 | 0.00 | 55 | 1040.7 |
| 20260906080503 | 15 | 345 | 0.0 | 4.8 | 0.00 | 0.00 | 0.00 | 55 | 1040.7 |
| 20260906080004 | 15 | 348 | 0.0 | 4.8 | 0.00 | 0.00 | 0.00 | 55 | 1040.7 |
| 20260906075503 | 15 | 350 | 1.6 | 4.8 | 0.00 | 0.00 | 0.00 | 55 | 1040.7 |
| 20260906075003 | 15 | 350 | 0.0 | 4.8 | 0.00 | 0.00 | 0.00 | 55 | 1040.7 |
| 20260906074503 | 15 | 350 | 0.0 | 1.6 | 0.00 | 0.00 | 0.00 | 56 | 1040.7 |
| 20260906074003 | 15 | 349 | 0.0 | 3.2 | 0.00 | 0.00 | 0.00 | 56 | 1040.7 |
| 20260906073503 | 15 | 4 | 1.6 | 4.8 | 0.00 | 0.00 | 0.00 | 55 | 1040.7 |
| 20260906073217 | 15 | 12 | 1.6 | 4.8 | 0.00 | 0.00 | 0.00 | 55 | 1040.7 |
| 20260906072503 | 15 | 45 | 0.0 | 1.6 | 0.00 | 0.00 | 0.00 | 55 | 1040.7 |
| 20260906072003 | 15 | 44 | 0.0 | 1.6 | 0.00 | 0.00 | 0.00 | 54 | 1040.7 |
| 20260906071503 | 15 | 44 | 0.0 | 1.6 | 0.00 | 0.00 | 0.00 | 54 | 1040.7 |
| 20260906071219 | 15 | 44 | 0.0 | 1.6 | 0.00 | 0.00 | 0.00 | 54 | 1040.8 |
| 20260906070503 | 15 | 44 | 0.0 | 1.6 | 0.00 | 0.00 | 0.00 | 54 | 1040.8 |
| 20260906070003 | 15 | 44 | 0.0 | 1.6 | 0.00 | 0.00 | 0.00 | 54 | 1040.7 |
| 20260906065503 | 15 | 45 | 0.0 | 1.6 | 0.00 | 0.00 | 0.00 | 54 | 1040.8 |
| 20260906065003 | 15 | 45 | 0.0 | 1.6 | 0.00 | 0.00 | 0.00 | 54 | 1040.8 |
| 20260906064719 | 15 | 45 | 0.0 | 1.6 | 0.00 | 0.00 | 0.00 | 53 | 1040.8 |
| 20260906064003 | 15 | 46 | 0.0 | 1.6 | 0.00 | 0.00 | 0.00 | 53 | 1040.8 |
| 20260906063503 | 15 | 46 | 0.0 | 3.2 | 0.00 | 0.00 | 0.00 | 53 | 1040.8 |
| 20260906063003 | 15 | 46 | 0.0 | 3.2 | 0.00 | 0.00 | 0.00 | 53 | 1040.7 |
| 20260906062503 | 15 | 46 | 0.0 | 1.6 | 0.00 | 0.00 | 0.00 | 53 | 1040.7 |
| 20260906062003 | 15 | 46 | 1.6 | 4.8 | 0.00 | 0.00 | 0.00 | 53 | 1040.7 |
| 20260906061717 | 15 | 46 | 1.6 | 4.8 | 0.00 | 0.00 | 0.00 | 53 | 1040.7 |
| 20260906061003 | 15 | 46 | 0.0 | 1.6 | 0.00 | 0.00 | 0.00 | 53 | 1040.7 |
| 20260906060504 | 16 | 46 | 0.0 | 1.6 | 0.00 | 0.00 | 0.00 | 52 | 1040.6 |
| 20260906060004 | 16 | 46 | 0.0 | 1.6 | 0.00 | 0.00 | 0.00 | 52 | 1040.7 |
| 20260906055718 | 16 | 47 | 0.0 | 3.2 | 0.00 | 0.00 | 0.00 | 51 | 1040.7 |
| 20260906055221 | 16 | 56 | 1.6 | 3.2 | 0.00 | 0.00 | 0.00 | 51 | 1040.7 |
| 20260906054503 | 16 | 77 | 1.6 | 4.8 | 0.00 | 0.00 | 0.00 | 50 | 1040.7 |
| 20260906054003 | 16 | 83 | 1.6 | 4.8 | 0.00 | 0.00 | 0.00 | 50 | 1040.7 |
| 20260906053503 | 16 | 86 | 0.0 | 3.2 | 0.00 | 0.00 | 0.00 | 49 | 1040.7 |
| 20260906053003 | 17 | 86 | 0.0 | 1.6 | 0.00 | 0.00 | 0.00 | 49 | 1040.7 |
| 20260906052503 | 17 | 86 | 0.0 | 1.6 | 0.00 | 0.00 | 0.00 | 49 | 1040.7 |
| 20260906052219 | 17 | 86 | 0.0 | 1.6 | 0.00 | 0.00 | 0.00 | 49 | 1040.7 |
| 20260906051503 | 17 | 86 | 0.0 | 1.6 | 0.00 | 0.00 | 0.00 | 49 | 1040.7 |
| 20260906051003 | 17 | 86 | 0.0 | 4.8 | 0.00 | 0.00 | 0.00 | 48 | 1040.7 |
| 20260906050503 | 17 | 86 | 0.0 | 4.8 | 0.00 | 0.00 | 0.00 | 48 | 1040.7 |
| 20260906050004 | 17 | 86 | 0.0 | 3.2 | 0.00 | 0.00 | 0.00 | 48 | 1040.7 |
| 20260906045503 | 17 | 85 | 1.6 | 3.2 | 0.00 | 0.00 | 0.00 | 49 | 1040.8 |
| 20260906045003 | 17 | 85 | 1.6 | 3.2 | 0.00 | 0.00 | 0.00 | 49 | 1040.8 |
| 20260906044720 | 17 | 85 | 1.6 | 3.2 | 0.00 | 0.00 | 0.00 | 49 | 1040.8 |
| 20260906044003 | 17 | 85 | 0.0 | 3.2 | 0.00 | 0.00 | 0.00 | 48 | 1040.9 |
| 20260906043503 | 17 | 85 | 0.0 | 3.2 | 0.00 | 0.00 | 0.00 | 48 | 1040.9 |
| 20260906043219 | 17 | 84 | 0.0 | 3.2 | 0.00 | 0.00 | 0.00 | 48 | 1040.8 |
| 20260906042503 | 17 | 83 | 1.6 | 3.2 | 0.00 | 0.00 | 0.00 | 48 | 1040.9 |
| 20260906042003 | 17 | 83 | 1.6 | 3.2 | 0.00 | 0.00 | 0.00 | 48 | 1040.9 |
| 20260906041718 | 17 | 83 | 0.0 | 3.2 | 0.00 | 0.00 | 0.00 | 48 | 1040.9 |
| 20260906041221 | 17 | 83 | 0.0 | 1.6 | 0.00 | 0.00 | 0.00 | 48 | 1040.9 |
| 20260906040503 | 17 | 83 | 1.6 | 4.8 | 0.00 | 0.00 | 0.00 | 48 | 1040.8 |
| 20260906040004 | 17 | 83 | 1.6 | 4.8 | 0.00 | 0.00 | 0.00 | 48 | 1041.0 |
| 20260906035503 | 17 | 83 | 0.0 | 3.2 | 0.00 | 0.00 | 0.00 | 48 | 1041.0 |
| 20260906035003 | 17 | 83 | 0.0 | 1.6 | 0.00 | 0.00 | 0.00 | 47 | 1041.0 |
| 20260906034503 | 17 | 83 | 0.0 | 1.6 | 0.00 | 0.00 | 0.00 | 47 | 1041.1 |
| 20260906034219 | 17 | 83 | 0.0 | 1.6 | 0.00 | 0.00 | 0.00 | 47 | 1041.0 |
| 20260906033503 | 17 | 83 | 0.0 | 1.6 | 0.00 | 0.00 | 0.00 | 46 | 1040.9 |
| 20260906033003 | 17 | 83 | 0.0 | 1.6 | 0.00 | 0.00 | 0.00 | 46 | 1040.9 |
| 20260906032503 | 17 | 83 | 0.0 | 1.6 | 0.00 | 0.00 | 0.00 | 45 | 1040.8 |
| 20260906032221 | 17 | 83 | 0.0 | 1.6 | 0.00 | 0.00 | 0.00 | 45 | 1040.8 |
| 20260906031503 | 18 | 83 | 0.0 | 1.6 | 0.00 | 0.00 | 0.00 | 45 | 1040.7 |
| 20260906031003 | 18 | 83 | 0.0 | 1.6 | 0.00 | 0.00 | 0.00 | 44 | 1040.7 |
| 20260906030503 | 18 | 70 | 0.0 | 1.6 | 0.00 | 0.00 | 0.00 | 44 | 1040.7 |
| 20260906030003 | 18 | 48 | 0.0 | 1.6 | 0.00 | 0.00 | 0.00 | 44 | 1040.7 |
| 20260906025503 | 18 | 42 | 0.0 | 3.2 | 0.00 | 0.00 | 0.00 | 43 | 1040.6 |
| 20260906025003 | 18 | 43 | 1.6 | 3.2 | 0.00 | 0.00 | 0.00 | 43 | 1040.5 |
| 20260906024503 | 18 | 44 | 1.6 | 3.2 | 0.00 | 0.00 | 0.00 | 43 | 1040.5 |
| 20260906024003 | 18 | 46 | 0.0 | 3.2 | 0.00 | 0.00 | 0.00 | 43 | 1040.4 |
| 20260906023503 | 18 | 45 | 1.6 | 4.8 | 0.00 | 0.00 | 0.00 | 43 | 1040.3 |
| 20260906023220 | 18 | 39 | 1.6 | 4.8 | 0.00 | 0.00 | 0.00 | 43 | 1040.3 |
| 20260906022503 | 19 | 40 | 1.6 | 6.4 | 0.00 | 0.00 | 0.00 | 43 | 1040.3 |
| 20260906022003 | 19 | 47 | 1.6 | 6.4 | 0.00 | 0.00 | 0.00 | 42 | 1040.2 |
| 20260906021503 | 19 | 48 | 1.6 | 6.4 | 0.00 | 0.00 | 0.00 | 42 | 1040.0 |
| 20260906021003 | 19 | 49 | 1.6 | 6.4 | 0.00 | 0.00 | 0.00 | 42 | 1040.0 |
| 20260906020503 | 19 | 48 | 1.6 | 4.8 | 0.00 | 0.00 | 0.00 | 42 | 1039.9 |
| 20260906020004 | 20 | 46 | 1.6 | 4.8 | 0.00 | 0.00 | 0.00 | 41 | 1039.9 |
| 20260906015721 | 20 | 44 | 1.6 | 6.4 | 0.00 | 0.00 | 0.00 | 41 | 1039.9 |
| 20260906015004 | 20 | 42 | 3.2 | 6.4 | 0.00 | 0.00 | 0.00 | 40 | 1039.8 |
| 20260906014503 | 20 | 43 | 3.2 | 8.0 | 0.00 | 0.00 | 0.00 | 40 | 1039.7 |
| 20260906014003 | 20 | 69 | 3.2 | 8.0 | 0.00 | 0.00 | 0.00 | 39 | 1039.8 |
| 20260906013503 | 20 | 87 | 3.2 | 11.3 | 0.00 | 0.00 | 0.00 | 39 | 1039.8 |
| 20260906013003 | 21 | 82 | 1.6 | 11.3 | 0.00 | 0.00 | 0.00 | 38 | 1039.7 |
| 20260906012503 | 21 | 82 | 3.2 | 11.3 | 0.00 | 0.00 | 0.00 | 38 | 1039.8 |
| 20260906012003 | 21 | 83 | 4.8 | 11.3 | 0.00 | 0.00 | 0.00 | 37 | 1039.7 |
| 20260906011503 | 21 | 89 | 4.8 | 12.9 | 0.00 | 0.00 | 0.00 | 36 | 1039.7 |
| 20260906011003 | 21 | 87 | 4.8 | 12.9 | 0.00 | 0.00 | 0.00 | 35 | 1039.7 |
| 20260906010503 | 22 | 77 | 4.8 | 12.9 | 0.00 | 0.00 | 0.00 | 35 | 1039.7 |
| 20260906010003 | 22 | 69 | 4.8 | 12.9 | 0.00 | 0.00 | 0.00 | 34 | 1039.7 |
| 20260906005717 | 22 | 63 | 3.2 | 11.3 | 0.00 | 0.00 | 0.00 | 33 | 1039.7 |
| 20260906005003 | 22 | 58 | 3.2 | 9.7 | 0.00 | 0.00 | 0.00 | 31 | 1039.7 |
| 20260906004503 | 22 | 59 | 1.6 | 4.8 | 0.00 | 0.00 | 0.00 | 31 | 1039.7 |
| 20260906004221 | 22 | 58 | 3.2 | 8.0 | 0.00 | 0.00 | 0.00 | 31 | 1039.7 |
| 20260906003503 | 22 | 58 | 4.8 | 11.3 | 0.00 | 0.00 | 0.00 | 32 | 1039.6 |
| 20260906003003 | 22 | 91 | 8.0 | 16.1 | 0.00 | 0.00 | 0.00 | 33 | 1039.6 |
| 20260906002503 | 22 | 112 | 9.7 | 17.7 | 0.00 | 0.00 | 0.00 | 33 | 1039.6 |
| 20260906002003 | 22 | 114 | 11.3 | 22.5 | 0.00 | 0.00 | 0.00 | 34 | 1039.6 |
| 20260906001503 | 23 | 113 | 9.7 | 22.5 | 0.00 | 0.00 | 0.00 | 33 | 1039.5 |
| 20260906001003 | 23 | 113 | 8.0 | 17.7 | 0.00 | 0.00 | 0.00 | 30 | 1039.4 |
| 20260906000503 | 23 | 110 | 9.7 | 19.3 | 0.00 | 0.00 | 0.00 | 30 | 1039.3 |
| 20260906000003 | 23 | 109 | 9.7 | 19.3 | 0.00 | 0.00 | 0.00 | 30 | 1039.3 |
| 20260905235717 | 23 | 111 | 8.0 | 17.7 | 0.00 | 0.00 | 0.00 | 30 | 1039.3 |
| 20260905235003 | 23 | 114 | 11.3 | 20.9 | 0.00 | 0.00 | 0.00 | 30 | 1039.1 |
| 20260905234503 | 24 | 113 | 11.3 | 22.5 | 0.00 | 0.00 | 0.00 | 30 | 1039.1 |
| 20260905234003 | 23 | 105 | 11.3 | 22.5 | 0.00 | 0.00 | 0.00 | 30 | 1039.1 |
| 20260905233503 | 23 | 105 | 11.3 | 20.9 | 0.00 | 0.00 | 0.00 | 30 | 1039.2 |
| 20260905233003 | 24 | 112 | 11.3 | 20.9 | 0.00 | 0.00 | 0.00 | 28 | 1039.1 |
| 20260905232503 | 25 | 110 | 8.0 | 19.3 | 0.00 | 0.00 | 0.00 | 27 | 1039.1 |
| 20260905232003 | 26 | 108 | 6.4 | 17.7 | 0.00 | 0.00 | 0.00 | 26 | 1039.1 |
| 20260905231503 | 26 | 109 | 6.4 | 17.7 | 0.00 | 0.00 | 0.00 | 26 | 1038.9 |
| 20260905231003 | 26 | 108 | 8.0 | 17.7 | 0.00 | 0.00 | 0.00 | 26 | 1039.0 |
| 20260905230717 | 26 | 109 | 8.0 | 19.3 | 0.00 | 0.00 | 0.00 | 26 | 1039.0 |
| 20260905230003 | 27 | 114 | 9.7 | 19.3 | 0.00 | 0.00 | 0.00 | 23 | 1039.1 |
| 20260905225503 | 27 | 120 | 6.4 | 16.1 | 0.00 | 0.00 | 0.00 | 18 | 1039.0 |
| 20260905225003 | 27 | 154 | 4.8 | 11.3 | 0.00 | 0.00 | 0.00 | 16 | 1039.0 |
| 20260905224503 | 27 | 217 | 4.8 | 9.7 | 0.00 | 0.00 | 0.00 | 15 | 1039.0 |
| 20260905224003 | 27 | 248 | 4.8 | 11.3 | 0.00 | 0.00 | 0.00 | 16 | 1039.1 |
| 20260905223503 | 26 | 282 | 4.8 | 11.3 | 0.00 | 0.00 | 0.00 | 18 | 1039.1 |
| 20260905223003 | 26 | 267 | 4.8 | 9.7 | 0.00 | 0.00 | 0.00 | 18 | 1039.1 |
| 20260905222503 | 26 | 223 | 3.2 | 9.7 | 0.00 | 0.00 | 0.00 | 18 | 1039.1 |
| 20260905222003 | 26 | 205 | 3.2 | 9.7 | 0.00 | 0.00 | 0.00 | 18 | 1039.2 |
| 20260905221503 | 27 | 186 | 3.2 | 11.3 | 0.00 | 0.00 | 0.00 | 18 | 1039.1 |